Location: Bad Salzschlirf
(50.3750°N, 9.3000°E)
Time: 05:50:17
(UTC+01:00)

ISS - Pass Details

Date: 06 December 2019
Orbit: 411 x 421 km, 51.6° (Epoch: 15 December)

Event Time Altitude Azimuth Distance (km) Brightness Sun altitude
Rises 18:23:42 0° 287° (WNW) 2,360 1.1 -18.7°
Reaches altitude 10° 18:25:49 10° 282° (WNW) 1,497 0.0 -19.0°
Maximum altitude 18:29:06 53° 205° (SSW) 521 -3.2 -19.5°
Enters shadow 18:29:48 43° 160° (SSE) 602 -3.1 -19.6°
